[[{"header":{"parameterUnit":"m.s-1","parameterCategory":1,"la1":30.2991,"la2":30.254,"lo1":-89.0895,"lo2":-89.0444,"dy":0.0017,"dx":0.0017,"nx":28,"ny":28,"refTime":"2024-06-29T21:00:00:Z","depth":0,"parameterNumber":2,"parameterNumberName":"U-component_of_WINDS"},"data":[0,0,0,0,0,0,0,0,0,0,0,0,0,0,0,0,0,0,0,0,0,0,0,0,0,0,0,0,0,0,0,0,0,0,0,0,0,0,0,0,0,0,0,0,0,0,0,0,0,0,0,0,0,0,0,0,0,0,0.1997,0.1998,0,0.2103,0.2104,0.2106,0.2109,0.2108,0.2107,0.2105,0.2217,0.2221,0.2225,0,0,0,0,0,0,0,0,0,0,0,0,0,0.1799,0.1802,0.1997,0.1998,0.1999,0.2103,0.2104,0.2106,0.2109,0.2108,0.2106,0.2105,0.2216,0.2221,0.2226,0,0,0,0,0,0,0,0,0,0,0,0,0,0.1893,0.1804,0.1996,0.2014,0.2016,0.2103,0.2105,0.2106,0.211,0.2108,0.2106,0.2104,0.2214,0.222,0.2226,0.2304,0,0,0.2245,0.2248,0,0,0,0,0,0,0,0,0.1888,0.19,0.201,0.2013,0.2016,0.2091,0.2076,0.2173,0.211,0.2074,0.2105,0.2103,0.2177,0.2186,0.221,0.2309,0.2314,0.2246,0.225,0.2252,0.2254,0,0,0,0,0,0,0,0.1881,0.1896,0.2039,0.2011,0.2015,0.2017,0.2028,0.2094,0.2135,0.2077,0.2078,0.209,0.2178,0.2204,0.2213,0.2315,0.2246,0.2251,0.2255,0.2258,0.2483,0.2485,0,0,0,0,0,0,0.1871,0.189,0.2036,0.2042,0.1945,0.2022,0.2034,0.2069,0.2134,0.2143,0.2092,0.209,0.2194,0.2206,0.2217,0.2312,0.2252,0.2258,0.2262,0.2481,0.2483,0.2486,0,0,0,0,0,0,0.1867,0.1884,0.2031,0.1966,0.1985,0.2027,0.2066,0.2072,0.2098,0.2145,0.2153,0.2111,0.2193,0.2208,0.2282,0.2316,0.2261,0.2267,0.2478,0.2482,0.2485,0.2503,0,0,0,0,0,0,0.1861,0.1882,0.1912,0.1967,0.1989,0.2094,0.2068,0.2075,0.2109,0.2107,0.2165,0.2173,0.2193,0.2273,0.2288,0.2324,0.2272,0.2475,0.248,0.2484,0.25,0.2506,0.2512,0,0,0,0,0,0.1854,0.1913,0.1913,0.1931,0.2026,0.2096,0.2108,0.2129,0.2111,0.2142,0.2172,0.2171,0.2309,0.228,0.2298,0.2336,0.2473,0.2478,0.2483,0.2497,0.2505,0.2512,0,0,0,0,0,0,0.1862,0.1921,0.1921,0.2,0.2043,0.2096,0.2135,0.2138,0.2187,0.2184,0.2209,0.2222,0.2295,0.2323,0.2289,0.2414,0.2389,0.2398,0.2393,0.2402,0.2408,0.2401,0.2277,0,0,0,0,0,0.1872,0.1923,0.1972,0.2037,0.2059,0.2093,0.2124,0.2137,0.2182,0.2201,0.2236,0.2281,0.2335,0.237,0.2422,0.2503,0.2516,0.2538,0.2544,0.2549,0.2557,0.2602,0.2612,0.2502,0.2502,0.2502,0,0,0.1896,0.1934,0.1965,0.204,0.2074,0.2127,0.2108,0.2165,0.2205,0.221,0.2281,0.2309,0.2361,0.2439,0.2475,0.2464,0.259,0.2556,0.2559,0.2564,0.2608,0.2619,0.2628,0.2506,0.2505,0.2505,0,0,0.1965,0.1999,0.2057,0.2091,0.2143,0.2166,0.218,0.2233,0.2251,0.2323,0.2328,0.2376,0.2467,0.2504,0.2535,0.2617,0.2619,0.2633,0.2668,0.2711,0.272,0.2728,0.2758,0.2768,0.2641,0.2641,0.2641,0,0.1987,0.2066,0.2086,0.2143,0.2176,0.2181,0.224,0.2273,0.234,0.2363,0.235,0.2465,0.25,0.2587,0.2606,0.2631,0.2648,0.2627,0.2717,0.2725,0.2733,0.2761,0.2773,0.2642,0.2642,0.2642,0.2642,0,0.2092,0.2147,0.2187,0.225,0.2288,0.2346,0.2375,0.241,0.2419,0.2443,0.2517,0.2559,0.262,0.2641,0.2651,0.2729,0.2721,0.2712,0.2688,0.2744,0.2772,0.2783,0.2644,0.2644,0.2643,0.2643,0,0,0.217,0.2243,0.2257,0.2286,0.2344,0.2387,0.2445,0.2503,0.2534,0.2579,0.2629,0.2706,0.2698,0.2733,0.2746,0.2785,0.2847,0.2771,0.2773,0.2784,0.2937,0.2943,0.2956,0.2848,0.285,0.2852,0.2933,0,0.2246,0.2348,0.2367,0.2457,0.2508,0.2514,0.2564,0.2605,0.2629,0.2677,0.2703,0.2757,0.2743,0.2764,0.2802,0.2832,0.2879,0.2826,0.2895,0.2898,0.2883,0.297,0.2978,0.3052,0.2943,0.2945,0.2947,0,0.2349,0.2396,0.249,0.2541,0.2563,0.2608,0.2663,0.2708,0.2754,0.2769,0.2807,0.2817,0.2877,0.285,0.2934,0.2898,0.2927,0.2946,0.295,0.2958,0.2926,0.2981,0.3076,0.3087,0.2964,0.2962,0.2961,0,0.2397,0.2484,0.2552,0.2576,0.2637,0.2668,0.2695,0.274,0.2773,0.2821,0.2844,0.2898,0.2929,0.2971,0.2995,0.2972,0.3078,0.3052,0.3092,0.3091,0.3115,0.3113,0.3216,0.3133,0.3132,0.3132,0.3132,0,0.248,0.2538,0.2574,0.2616,0.2681,0.2702,0.2766,0.2792,0.2832,0.2879,0.2888,0.2932,0.296,0.3009,0.3028,0.3095,0.3109,0.3123,0.3127,0.3122,0.3121,0.3142,0.3138,0.3135,0.3134,0.3134,0.3133,0,0.2545,0.2572,0.2646,0.2697,0.2711,0.2757,0.28,0.2841,0.2865,0.2924,0.294,0.2977,0.3034,0.3062,0.3134,0.3146,0.3222,0.3223,0.3207,0.3208,0.3247,0.3243,0.3368,0.3386,0.329,0.3291,0.3292,0,0.2597,0.2641,0.2697,0.2728,0.2756,0.2807,0.2841,0.2864,0.2899,0.2955,0.299,0.3047,0.3095,0.3187,0.322,0.3275,0.3277,0.3317,0.3286,0.328,0.3279,0.3276,0.3281,0.3323,0.3324,0.3325,0.3326,0,0.2686,0.2697,0.2745,0.2799,0.2839,0.2882,0.2925,0.295,0.298,0.3019,0.3078,0.3114,0.3187,0.3244,0.3301,0.3329,0.3333,0.3335,0.3347,0.3343,0.3332,0.3339,0.3223,0.3332,0.3332,0.3331,0.3331,0.3331,0.2747,0.2786,0.2831,0.2885,0.2919,0.2958,0.2999,0.3027,0.3076,0.3136,0.3147,0.3209,0.3255,0.3331,0.3361,0.341,0.3401,0.3419,0.3424,0.3428,0.343,0.3323,0.3421,0.3421,0.342,0.342,0.342,0,0.2837,0.2866,0.2915,0.2973,0.3016,0.3014,0.3061,0.3097,0.3151,0.3193,0.3239,0.3306,0.3361,0.3399,0.3455,0.3487,0.349,0.3501,0.3499,0.3506,0.3435,0.3419,0.3498,0.3498,0.3498,0.3497,0.3497,0.3497,0.2889,0.2956,0.2972,0.3056,0.3084,0.3145,0.3171,0.3208,0.3241,0.3315,0.3361,0.3385,0.3425,0.3484,0.3535,0.3544,0.3565,0.3576,0.3586,0.3519,0.3511,0.3503,0.3488,0.358,0.358,0.3652,0.3653,0.3654]},{"header":{"parameterUnit":"m.s-1","parameterCategory":1,"la1":30.2991,"la2":30.254,"lo1":-89.0895,"lo2":-89.0444,"dy":0.0017,"dx":0.0017,"nx":28,"ny":28,"refTime":"2024-06-29T21:00:00:Z","depth":0,"parameterNumber":3,"parameterNumberName":"V-component_of_WINDS"},"data":[0,0,0,0,0,0,0,0,0,0,0,0,0,0,0,0,0,0,0,0,0,0,0,0,0,0,0,0,0,0,0,0,0,0,0,0,0,0,0,0,0,0,0,0,0,0,0,0,0,0,0,0,0,0,0,0,0,0,-0.3607,-0.3606,0,-0.3516,-0.3515,-0.3513,-0.3583,-0.3586,-0.3589,-0.3592,-0.3494,-0.3489,-0.3484,0,0,0,0,0,0,0,0,0,0,0,0,0,-0.3841,-0.3836,-0.3607,-0.3606,-0.3605,-0.3516,-0.3514,-0.3513,-0.3583,-0.3587,-0.359,-0.3594,-0.3496,-0.349,-0.3483,0,0,0,0,0,0,0,0,0,0,0,0,0,-0.3743,-0.3835,-0.3607,-0.3629,-0.363,-0.3516,-0.3514,-0.3513,-0.3582,-0.3587,-0.3591,-0.3595,-0.3498,-0.349,-0.3482,-0.3341,0,0,-0.3458,-0.3454,0,0,0,0,0,0,0,0,-0.3749,-0.3734,-0.3627,-0.3627,-0.3628,-0.3566,-0.3561,-0.3455,-0.3581,-0.36,-0.3592,-0.3598,-0.3514,-0.3505,-0.3478,-0.3336,-0.3332,-0.3457,-0.3452,-0.3448,-0.3446,0,0,0,0,0,0,0,-0.3755,-0.3739,-0.3571,-0.3625,-0.3626,-0.3643,-0.3634,-0.3541,-0.3532,-0.3599,-0.3604,-0.3592,-0.3515,-0.3485,-0.3476,-0.3331,-0.3457,-0.345,-0.3445,-0.3442,-0.3074,-0.307,0,0,0,0,0,0,-0.376,-0.3744,-0.3574,-0.3568,-0.3701,-0.3635,-0.3625,-0.3581,-0.3534,-0.3531,-0.3588,-0.3596,-0.3497,-0.3485,-0.3473,-0.3309,-0.3448,-0.3441,-0.3436,-0.3079,-0.3073,-0.3068,0,0,0,0,0,0,-0.3765,-0.3744,-0.3577,-0.3657,-0.3637,-0.3626,-0.3576,-0.3577,-0.3547,-0.3526,-0.3524,-0.3559,-0.35,-0.3484,-0.3375,-0.3306,-0.3437,-0.343,-0.3085,-0.3077,-0.3071,-0.2976,0,0,0,0,0,0,-0.3771,-0.3746,-0.3692,-0.3656,-0.3633,-0.3481,-0.3572,-0.3572,-0.3533,-0.3542,-0.3499,-0.3496,-0.3503,-0.3387,-0.3367,-0.3297,-0.3423,-0.3091,-0.3082,-0.3073,-0.2986,-0.2967,-0.2951,0,0,0,0,0,-0.378,-0.3667,-0.3689,-0.3668,-0.3566,-0.3477,-0.3464,-0.3475,-0.3527,-0.3474,-0.3461,-0.3497,-0.3316,-0.3375,-0.3353,-0.328,-0.3096,-0.3084,-0.3074,-0.2994,-0.2971,-0.2951,0,0,0,0,0,0,-0.3693,-0.3662,-0.3686,-0.3559,-0.352,-0.3489,-0.3421,-0.345,-0.3394,-0.3405,-0.342,-0.341,-0.3296,-0.3276,-0.3342,-0.3143,-0.3214,-0.3198,-0.3161,-0.3139,-0.3122,-0.313,-0.3417,0,0,0,0,0,-0.3659,-0.3591,-0.3567,-0.3457,-0.3437,-0.3432,-0.3394,-0.3406,-0.3366,-0.335,-0.3329,-0.3288,-0.3223,-0.3179,-0.3117,-0.2982,-0.2976,-0.2922,-0.2904,-0.289,-0.2877,-0.2809,-0.2786,-0.3032,-0.3032,-0.3033,0,0,-0.3588,-0.3563,-0.3519,-0.3439,-0.3411,-0.334,-0.3418,-0.3338,-0.3286,-0.3337,-0.3235,-0.3218,-0.3173,-0.3052,-0.2997,-0.3032,-0.2808,-0.2876,-0.2865,-0.286,-0.2796,-0.2773,-0.2752,-0.3025,-0.3026,-0.3027,0,0,-0.3425,-0.3397,-0.3305,-0.3276,-0.3233,-0.3231,-0.3209,-0.3174,-0.3166,-0.3063,-0.3102,-0.3039,-0.2924,-0.2893,-0.2862,-0.269,-0.2723,-0.2669,-0.2578,-0.2512,-0.2493,-0.2476,-0.2419,-0.2398,-0.2655,-0.2655,-0.2655,0,-0.3342,-0.3238,-0.3253,-0.3173,-0.3138,-0.3183,-0.3091,-0.3061,-0.2999,-0.2975,-0.3014,-0.2876,-0.2848,-0.2723,-0.2682,-0.2653,-0.263,-0.2675,-0.2495,-0.2478,-0.2462,-0.2408,-0.2386,-0.2649,-0.265,-0.265,-0.2651,0,-0.3141,-0.3068,-0.2998,-0.2942,-0.2898,-0.2812,-0.2815,-0.2769,-0.2786,-0.278,-0.2677,-0.2646,-0.2581,-0.2552,-0.2565,-0.2429,-0.2453,-0.2493,-0.2565,-0.2433,-0.2382,-0.2361,-0.2641,-0.2643,-0.2645,-0.2646,0,0,-0.292,-0.2875,-0.285,-0.2827,-0.2784,-0.2728,-0.2644,-0.2583,-0.2546,-0.2501,-0.2434,-0.2338,-0.2377,-0.2341,-0.2352,-0.2293,-0.2165,-0.2341,-0.2341,-0.2313,-0.2018,-0.1991,-0.1967,-0.2185,-0.2181,-0.2178,-0.2023,0,-0.2758,-0.2616,-0.2628,-0.2493,-0.2428,-0.2471,-0.2399,-0.2365,-0.2358,-0.2302,-0.2293,-0.2227,-0.228,-0.226,-0.2203,-0.2192,-0.2106,-0.2203,-0.2124,-0.2121,-0.2139,-0.194,-0.191,-0.1766,-0.2003,-0.2,-0.1997,0,-0.255,-0.2503,-0.2362,-0.2334,-0.2307,-0.2242,-0.219,-0.2134,-0.2098,-0.2097,-0.2059,-0.2081,-0.1998,-0.207,-0.1958,-0.2024,-0.1992,-0.1982,-0.1976,-0.1973,-0.2054,-0.1935,-0.1719,-0.17,-0.1965,-0.1968,-0.197,0,-0.241,-0.231,-0.2215,-0.2193,-0.2156,-0.211,-0.2092,-0.206,-0.2024,-0.1977,-0.1954,-0.1897,-0.1866,-0.1822,-0.1829,-0.1879,-0.1716,-0.1787,-0.1715,-0.1715,-0.1681,-0.1684,-0.1462,-0.1653,-0.1653,-0.1654,-0.1654,0,-0.223,-0.2143,-0.2152,-0.2094,-0.1999,-0.2014,-0.1919,-0.1907,-0.1878,-0.1819,-0.185,-0.1793,-0.1803,-0.1747,-0.1751,-0.166,-0.1644,-0.1643,-0.1646,-0.1643,-0.1643,-0.1625,-0.1637,-0.1648,-0.1649,-0.165,-0.1651,0,-0.2058,-0.206,-0.196,-0.1934,-0.1926,-0.1857,-0.1836,-0.1781,-0.1777,-0.1702,-0.1685,-0.1678,-0.1614,-0.1615,-0.154,-0.1543,-0.1433,-0.1445,-0.1447,-0.1451,-0.138,-0.1389,-0.1142,-0.1113,-0.1319,-0.1317,-0.1315,0,-0.1946,-0.1881,-0.185,-0.1814,-0.1794,-0.1734,-0.1698,-0.1711,-0.1672,-0.1628,-0.1579,-0.1518,-0.1471,-0.1366,-0.1354,-0.1298,-0.1312,-0.1229,-0.1304,-0.1304,-0.1316,-0.1322,-0.1318,-0.1216,-0.1214,-0.1212,-0.121,0,-0.1748,-0.1753,-0.1701,-0.1651,-0.1608,-0.1568,-0.1532,-0.15,-0.1508,-0.1464,-0.14,-0.1363,-0.1289,-0.1229,-0.1177,-0.1158,-0.1186,-0.1187,-0.1168,-0.1166,-0.1172,-0.1173,-0.1412,-0.1193,-0.1195,-0.1196,-0.1197,-0.1198,-0.1605,-0.1552,-0.1523,-0.1466,-0.144,-0.1406,-0.1355,-0.1346,-0.1294,-0.1237,-0.1246,-0.1176,-0.1144,-0.1076,-0.1053,-0.0998,-0.1027,-0.0999,-0.0992,-0.0986,-0.0981,-0.1177,-0.0988,-0.0988,-0.0989,-0.0989,-0.0989,0,-0.1414,-0.1398,-0.1345,-0.1295,-0.125,-0.1281,-0.1243,-0.1204,-0.1142,-0.111,-0.1064,-0.0992,-0.0935,-0.092,-0.0865,-0.0825,-0.0837,-0.081,-0.0816,-0.0812,-0.0955,-0.098,-0.0802,-0.0802,-0.0802,-0.0802,-0.0802,-0.0802,-0.1309,-0.1222,-0.1224,-0.1125,-0.1109,-0.1042,-0.1019,-0.0988,-0.0964,-0.0883,-0.0837,-0.0828,-0.0803,-0.0748,-0.0697,-0.0694,-0.0675,-0.0644,-0.0647,-0.0782,-0.0801,-0.0819,-0.0842,-0.0639,-0.0638,-0.0509,-0.0507,-0.0506]}]]